This is the latest recevied weather packets stored in our database for station/object XE2KK-10. If no packets are shown the sender has not sent any weather packets the latest 10 day(s).
| Time | Temp. | Humidity | Pressure | Rain* | Wind** | Luminosity | Snow |
|---|---|---|---|---|---|---|---|
| 1777937052 | 31.11° C | 39% | 1009.6 hPa | 0 mm | - | 141 W/m² | - |
| 1777936753 | 30.56° C | 40% | 1009.3 hPa | 0 mm | - | 315 W/m² | - |
| 1777936453 | 30.56° C | 39% | 1009.4 hPa | 0 mm | - | 261 W/m² | - |
| 1777936153 | 30.56° C | 40% | 1009.3 hPa | 0 mm | - | 182 W/m² | - |
| 1777935852 | 30.56° C | 40% | 1009.6 hPa | 0 mm | - | 274 W/m² | - |
| 1777935552 | 30.56° C | 40% | 1009.7 hPa | 0 mm | - | 201 W/m² | - |
| 1777935252 | 31.11° C | 39% | 1009.6 hPa | 0 mm | - | 299 W/m² | - |
| 1777934953 | 30.56° C | 40% | 1009.8 hPa | 0 mm | - | 296 W/m² | - |
| 1777934653 | 31.11° C | 39% | 1009.8 hPa | 0 mm | - | 336 W/m² | - |
| 1777934353 | 30.56° C | 40% | 1009.7 hPa | 0 mm | - | 306 W/m² | - |
| 1777934052 | 30.56° C | 39% | 1009.9 hPa | 0 mm | - | 372 W/m² | - |
| 1777933752 | 30.56° C | 40% | 1009.6 hPa | 0 mm | - | 351 W/m² | - |
| 1777933452 | 31.11° C | 39% | 1009.9 hPa | 0 mm | - | 290 W/m² | - |
| 1777933153 | 30.56° C | 40% | 1009.9 hPa | 0 mm | - | 451 W/m² | - |
| 1777932853 | 30° C | 40% | 1009.8 hPa | 0 mm | - | 398 W/m² | - |
| 1777932553 | 30.56° C | 40% | 1009.9 hPa | 0 mm | - | 262 W/m² | - |
| 1777932252 | 30.56° C | 40% | 1010.2 hPa | 0 mm | - | 466 W/m² | - |
| 1777931952 | 30° C | 41% | 1010 hPa | 0 mm | - | 532 W/m² | - |
| 1777931653 | 30° C | 42% | 1010 hPa | 0 mm | - | 492 W/m² | - |
| 1777931353 | 30° C | 41% | 1010.1 hPa | 0 mm | - | 409 W/m² | - |
| 1777931053 | 30° C | 41% | 1010.4 hPa | 0 mm | - | 482 W/m² | - |
| 1777930753 | 30° C | 41% | 1010.3 hPa | 0 mm | - | 468 W/m² | - |
| 1777930452 | 30° C | 41% | 1010.4 hPa | 0 mm | - | 523 W/m² | - |
| 1777930152 | 30° C | 42% | 1010.4 hPa | 0 mm | - | 308 W/m² | - |
| 1777929853 | 30° C | 41% | 1010.7 hPa | 0 mm | - | 513 W/m² | - |
* Rain latest hour (hover to see other rain measurements)
** Current wind speed in m/s (hover to see current wind gust speed)